Flag for Australia Weather past 2 weeks in Brisbane, Queensland, Australia

Now
61 °F

Clear.


Feels Like: 61 °F
Forecast: 53 / 71 °F
Wind: 9 mph from South

Location: Brisbane Airport M. O

Current Time: Aug 20, 2014 at 11:17:22 PM

Latest Report: Aug 20, 2014 at 10:30 PM


Visibility: 10 mi

Pressure: 30.18 "Hg

Humidity: 68%

Dew point: 50 °F

Location of BrisbaneLocation

Historic Weather in Brisbane — Graph

°F

Brisbane temperature yesterday

Maximum temperature yesterday: 73 °F (at 1:00 PM)
Minimum temperature yesterday: 54 °F (at 11:00 PM)
Average temperature yesterday: 64 °F

Past Weeks' High & Low Weather Summary

 TemperatureHumidityPressure
High75 °F (Aug 11, 12:00 PM)100% (Aug 10, 2:00 AM)30.45 "Hg (Aug 10, 2:00 AM)
Low48 °F (Aug 6, 5:30 AM)22% (Aug 17, 4:00 PM)29.74 "Hg (Aug 17, 1:30 PM)
Average61 °F67%30.18 "Hg
* Reported Aug 5 10:00 PM — Aug 20 10:00 PM, Brisbane, Weather by CustomWeather, © 2014

Note: Actual official high and low records may vary slightly from our data, if they occured in-between our weather recording intervals... More about our weather records

Advertising

Brisbane weather history for previous 24 hours

 ConditionsComfort  
Time TempWeatherWind HumidityBarometerVisibility
10:00 PM
Aug 20
61 °FClear.9 mph68%30.18 "Hg10 mi
9:30 PM63 °FClear.9 mph64%30.18 "Hg10 mi
9:00 PM63 °FClear.10 mph64%30.18 "Hg10 mi
8:30 PM63 °FClear.9 mph64%30.15 "Hg10 mi
8:00 PM63 °FClear.8 mph64%30.15 "Hg10 mi
7:30 PM64 °FClear.8 mph60%30.15 "Hg10 mi
7:00 PM64 °FClear.9 mph60%30.12 "Hg10 mi
6:30 PM64 °FPassing clouds.9 mph60%30.12 "HgN/A
6:00 PM64 °FPassing clouds.10 mph68%30.09 "HgN/A
5:30 PM64 °FPassing clouds.12 mph68%30.09 "HgN/A
5:00 PM66 °FPassing clouds.9 mph64%30.09 "HgN/A
4:30 PM66 °FPassing clouds.12 mph64%30.07 "HgN/A
4:00 PM68 °FPassing clouds.13 mph60%30.07 "HgN/A
3:30 PM68 °FPassing clouds.12 mph53%30.07 "HgN/A
3:00 PM68 °FPassing clouds.14 mph56%30.04 "HgN/A
2:00 PM70 °FPassing clouds.10 mph46%30.07 "HgN/A
1:30 PM70 °FScattered clouds.12 mph46%30.07 "HgN/A
1:00 PM70 °FScattered clouds.12 mph50%30.07 "HgN/A
12:30 PM70 °FPassing clouds.10 mph46%30.07 "HgN/A
12:00 PM70 °FPassing clouds.8 mph46%30.09 "HgN/A
11:30 AM68 °FPassing clouds.6 mph46%30.09 "HgN/A
11:00 AM68 °FPassing clouds.9 mph46%30.09 "HgN/A
10:30 AM68 °FPassing clouds.9 mph46%30.09 "HgN/A
10:00 AM66 °FSunny.10 mph46%30.12 "Hg10 mi
9:30 AM66 °FSunny.12 mph46%30.12 "Hg10 mi
9:00 AM64 °FSunny.13 mph49%30.12 "Hg10 mi
8:00 AM59 °FSunny.9 mph68%30.12 "Hg10 mi
7:30 AM55 °FSunny.8 mph77%30.09 "Hg10 mi
7:00 AM54 °FSunny.8 mph77%30.09 "Hg10 mi
6:30 AM50 °FSunny.8 mph82%30.09 "Hg10 mi
6:00 AM50 °FPassing clouds.7 mph88%30.07 "HgN/A
5:30 AM50 °FSunny.7 mph88%30.07 "Hg10 mi
5:00 AM52 °FClear.8 mph82%30.04 "Hg10 mi
4:00 AM54 °FClear.6 mph77%30.04 "Hg10 mi
3:30 AM54 °FClear.7 mph77%30.01 "Hg10 mi
3:00 AM55 °FClear.8 mph72%30.01 "Hg10 mi
2:30 AM55 °FClear.8 mph72%30.01 "Hg10 mi
2:00 AM55 °FClear.8 mph67%30.01 "Hg10 mi
1:30 AM54 °FClear.6 mph72%30.01 "Hg10 mi
1:00 AM54 °FClear.6 mph77%30.01 "Hg10 mi
12:30 AM55 °FClear.3 mph67%30.01 "Hg10 mi
12:00 AM55 °FClear.6 mph67%30.01 "Hg10 mi
11:30 PM
Aug 19
57 °FClear.2 mph63%30.01 "Hg10 mi
11:00 PM54 °FClear.6 mph72%30.01 "Hg10 mi
Weather by CustomWeather, © 2014

See weather overviewHow to use our weather pages